Weather History for FAGG - January, 2014

Change the Weather History Date:

Saturday, January 11, 2014

  Actual Average Record
Temperature  
Mean Temperature 60 °F -  
Max Temperature 67 °F 74 °F 78 °F (2015)
Min Temperature 54 °F 58 °F 66 °F (2015)
Degree Days  
Heating Degree Days 4    
Growing Degree Days 10 (Base 50)    
Moisture  
Dew Point 55 °F    
Average Humidity 76    
Maximum Humidity 94    
Minimum Humidity 63    
Precipitation  
Precipitation 0.00 in - - ()
Sea Level Pressure  
Sea Level Pressure 30.06 in    
Wind  
Wind Speed 4 mph ()    
Max Wind Speed 8 mph    
Max Gust Speed -    
Visibility 7.6 miles    
Events Rain    
Averages and records for this station are not official NWS values.
T = Trace of Precipitation, MM = Missing Value Source: Averaged Metar Reports

Daily Weather History Graph

Daily Weather History Graph

Search for Another Location

Airport or City:

Trip Planner

Search our weather history database for the weather conditions in past years. The results will help you decide how hot, cold, wet, or windy it might be!

Date:

Astronomy

Jan. 11, 2014 Rise Set
Actual Time 5:31 AM SAST 7:45 PM SAST
Civil Twilight 5:02 AM SAST 8:13 PM SAST
Nautical Twilight 4:27 AM SAST 8:48 PM SAST
Astronomical Twilight 3:49 AM SAST 9:26 PM SAST
Moon 3:54 PM SAST (1/11) 1:47 AM SAST (1/11)
Length of Visible Light 15h 11m
Length of Day
14h 14m
Waxing Gibbous, 81% of the Moon is Illuminated
Jan 11
Waxing Gibbous
Jan 16
Full
Jan 24
Last Quarter
Jan 30
New
Feb 6
First Quarter

Hourly Weather History & Observations

Time (SAST) Temp. Dew Point Humidity Pressure Visibility Wind Dir Wind Speed Gust Speed Precip Events Conditions
12:00 AM 60.8 °F 55.4 °F 82% 30.12 in 6.2 mi SSW 3.5 mph - N/A Rain Light Rain
1:00 AM 60.8 °F 57.2 °F 88% 30.09 in 6.2 mi WNW 3.5 mph - N/A   Overcast
2:00 AM 60 °F 56 °F 84% 30.09 in 12 mi NW 4.6 mph - -  
2:00 AM 60.8 °F 57.2 °F 88% 30.09 in 6.2 mi NNW 4.6 mph - N/A Rain Light Rain
3:00 AM 59.0 °F 55.4 °F 88% 30.06 in 6.2 mi NNW 4.6 mph - N/A   Partly Cloudy
4:00 AM 57.2 °F 53.6 °F 88% 30.06 in - Variable 2.3 mph - N/A   Clear
5:00 AM 56 °F 53 °F 86% 30.08 in 12 mi NE 3.5 mph - -   Scattered Clouds
5:00 AM 55.4 °F 53.6 °F 94% 30.06 in 6.2 mi NE 3.5 mph - N/A   Partly Cloudy
6:00 AM 55.4 °F 51.8 °F 88% 30.06 in 6.2 mi NW 3.5 mph - N/A   Partly Cloudy
7:00 AM 59.0 °F 53.6 °F 82% 30.06 in 6.2 mi NW 2.3 mph - N/A   Partly Cloudy
8:00 AM 63 °F 55 °F 67% 30.10 in 12 mi 1.2 mph - -   Partly Cloudy
8:00 AM 62.6 °F 55.4 °F 77% 30.06 in 6.2 mi Variable 1.2 mph - N/A   Scattered Clouds
9:00 AM 64.4 °F 55.4 °F 73% 30.06 in 6.2 mi SSE 4.6 mph - N/A   Scattered Clouds
10:00 AM 66.2 °F 55.4 °F 68% 30.06 in 6.2 mi SE 8.1 mph - N/A   Mostly Cloudy
11:00 AM 64 °F 54 °F 63% 30.08 in 12 mi South 8.1 mph - -   Mostly Cloudy
11:00 AM 64.4 °F 55.4 °F 73% 30.06 in 6.2 mi South 8.1 mph - N/A   Mostly Cloudy
12:00 PM 64.4 °F 53.6 °F 68% 30.06 in 6.2 mi SE 8.1 mph - N/A   Mostly Cloudy
1:00 PM 64.4 °F 55.4 °F 73% 30.06 in 6.2 mi SE 6.9 mph - N/A   Mostly Cloudy
2:00 PM 65 °F 55 °F 63% 30.06 in 12 mi SE 8.1 mph - -   Mostly Cloudy
2:00 PM 64.4 °F 55.4 °F 73% 30.04 in 6.2 mi SSE 6.9 mph - N/A   Mostly Cloudy
3:00 PM 66.2 °F 55.4 °F 68% 30.04 in 6.2 mi ESE 8.1 mph - N/A   Mostly Cloudy
4:00 PM 64.4 °F 55.4 °F 73% 30.04 in 6.2 mi SE 8.1 mph - N/A   Mostly Cloudy
5:00 PM 65 °F 56 °F 65% 30.02 in 12 mi SE 6.9 mph - -   Mostly Cloudy
5:00 PM 64.4 °F 55.4 °F 73% 30.01 in 6.2 mi SE 6.9 mph - N/A   Mostly Cloudy
6:00 PM 64.4 °F 55.4 °F 73% 30.01 in 6.2 mi East 6.9 mph - N/A   Mostly Cloudy
7:00 PM 64.4 °F 55.4 °F 73% 30.04 in 6.2 mi East 4.6 mph - N/A   Mostly Cloudy
8:00 PM 64 °F 55 °F 66% 30.06 in 12 mi SE 3.5 mph - -   Mostly Cloudy
8:00 PM 64.4 °F 55.4 °F 73% 30.04 in 6.2 mi ESE 3.5 mph - N/A   Mostly Cloudy
9:00 PM 62.6 °F 57.2 °F 82% 30.06 in 6.2 mi East 3.5 mph - N/A   Overcast
10:00 PM 62.6 °F 55.4 °F 77% 30.06 in 6.2 mi Variable 2.3 mph - N/A   Mostly Cloudy
11:00 PM 62.6 °F 57.2 °F 82% 30.06 in - East 2.3 mph - N/A   Clear